DELTA 1 DEB, 7143

Orbit data source: Space-Track

DELTA 1 DEB, 7143 is space debris in SSO originally from a launch on Tue, 06 Nov 1973 UTC launched from the Air Force Western Test Range (AFWTR). Debris objects in space refer to the collection of defunct objects orbiting the Earth. Examples of debris include non-operational satellites, rocket bodies, and fragments generated from explosions, collisions, or faulty payload assembly.

Loading next visibility...
Identifier
7143, 1973-086DH
Orbit
SSO
Country
Flag of USUS
Related business
Manufacturer
Unknown
Mission
Spacecraft
Bus & Motor
Unknown
Mass
Unknown
Launch date (UTC)
1973-11-06 (53 years ago)
Launch vehicle
Unknown
Launch site
Air Force Western Test Range (AFWTR)
Object type
Payload
Rocket body
Debris
Shape & HBR
Unknown shape, 0.1 m
Radar Cross Section
Medium (>0.1 m² and <1 m²)

Expand to show TLE details & history
Last TLE update: 20 hours ago

TLE from 20 hours ago
0 DELTA 1 DEB
1 07143U 73086DH  26206.59150602 -.00000016  00000-0  21525-3 0  9999
2 07143 101.7616 230.6771 0047598 321.3348 191.4948 12.33014949372073
Epoch: 2026-07-25T14:11Z
TLE epoch observation values (Epoch: 2026-07-25T14:11:46.120Z)
Latitude
26.69509°
Longitude
-99.58615°
Altitude
1,576.22 km
Speed
7.066 km/s
True Right ascension
03h 46m 37s
True Declination
26° 34' 17"
Sunlit
Object was in daylight at epoch
Visualization orbit readout
Latitude
Unknown
Longitude
Unknown
Altitude
Unknown
Speed
Unknown
Apparent Right ascension
Unknown
Apparent Declination
Unknown
Sunlit
N/A
Visualization observer readout
Local Sidereal Time
23:18:34
Azimuth
Unknown
Elevation
Unknown
Doppler factor
Unknown
Orbital elements
Apogee altitude
1,571.583 km
Perigee altitude
1,496.263 km
Semi-major axis
7,912.06 km
Eccentricity
0.00476
Inclination
101.7616°
RAAN
230.6771°
Arg. of periapsis
321.3348°
True anomaly
191.38674°
Mean anomaly
191.4948°
Eccentric anomaly
191.44071°
Mean motion
3.08396 °/min
Orbital period
116.73 mins
BSTAR
0.00021525
Loading maneuver chart data...
Computing Atmospheric mass density...
Loading historical data...
Loading historical data...
Loading historical data...
Loading historical data...
Loading historical data...
Loading historical data...
Loading historical data...

Documentation

Showing up to 5 results
|